GW2240 Weather Reports


time (UTC)temp
C
wind
direction
speed
KPH
gust
KPH
rain 1hr
cm
rain 24hr
cm
rain mn
cm
humidity
%
barometer
mb
20260505031530 22 150 0.0 3.2 0.00 0.00 0.00 79 1011.0
20260505030029 23 145 0.0 3.2 0.00 0.00 0.00 78 1010.9
20260505024529 23 159 0.0 1.6 0.00 0.00 0.00 78 1010.7
20260505023028 23 152 0.0 3.2 0.00 0.00 0.00 77 1010.7
20260505021528 23 151 0.0 3.2 0.00 0.00 0.00 77 1010.7
20260505020036 23 133 0.0 1.6 0.00 0.00 0.00 77 1010.5
20260505014527 23 121 0.0 0.0 0.00 0.00 0.00 77 1010.4
20260505013027 23 154 0.0 0.0 0.00 0.00 0.00 77 1010.2
20260505011528 23 148 0.0 1.6 0.00 0.00 0.00 76 1010.2
20260505010027 23 148 0.0 0.0 0.00 0.00 0.00 75 1010.3
20260505004525 24 148 0.0 0.0 0.00 0.00 0.00 73 1010.3
20260505003026 24 148 0.0 3.2 0.00 0.00 0.00 73 1010.1
20260505001524 25 111 0.0 0.0 0.00 0.00 0.00 72 1010.1
20260505000039 25 144 0.0 3.2 0.00 0.00 0.00 71 1010.3
20260504234525 25 173 0.0 1.6 0.00 0.00 0.00 72 1010.5
20260504233022 25 191 0.0 3.2 0.00 0.00 0.00 71 1010.3
20260504231520 25 164 0.0 3.2 0.00 0.00 0.00 70 1010.5
20260504230018 26 173 0.0 3.2 0.00 0.00 0.00 67 1010.8
20260504224518 26 148 0.0 3.2 0.00 0.00 0.00 68 1010.7
20260504223017 26 159 0.0 3.2 0.00 0.00 0.00 68 1010.9
20260504221525 26 144 0.0 3.2 0.00 0.00 0.00 67 1011.0
20260504220030 26 173 0.0 1.6 0.00 0.00 0.00 68 1011.2
20260504214513 26 209 0.0 0.0 0.00 0.00 0.00 66 1011.3
20260504213015 26 164 0.0 1.6 0.00 0.00 0.00 66 1011.4
20260504211511 26 173 0.0 3.2 0.00 0.00 0.00 67 1011.8
20260504210010 26 179 0.0 0.0 0.00 0.00 0.00 66 1011.9
20260504204508 26 140 0.0 3.2 0.00 0.00 0.00 65 1012.2
20260504203007 27 159 0.0 0.0 0.00 0.00 0.00 65 1012.2
20260504201504 26 144 0.0 3.2 0.00 0.00 0.00 64 1012.7
20260504200005 26 189 0.0 0.0 0.00 0.00 0.00 64 1012.9
20260504194502 27 52 0.0 3.2 0.00 0.00 0.00 63 1013.1
20260504193002 27 173 0.0 3.2 0.00 0.00 0.00 61 1013.2
20260504191600 30 179 0.0 3.2 0.00 0.00 0.00 53 1013.4
20260504190108 26 186 0.0 3.2 0.00 0.00 0.00 62 1013.9
20260504184556 27 198 0.0 3.2 0.00 0.00 0.00 60 1013.9
20260504183100 26 182 0.0 3.2 0.00 0.00 0.00 61 1014.0
20260504181553 27 183 0.0 3.2 0.00 0.00 0.00 62 1014.1
20260504180130 26 202 0.0 3.2 0.00 0.00 0.00 62 1014.2
20260504174547 26 204 0.0 1.6 0.00 0.00 0.00 62 1014.4
20260504173047 26 177 0.0 3.2 0.00 0.00 0.00 63 1014.7
20260504171548 26 148 0.0 3.2 0.00 0.00 0.00 60 1014.9
20260504140104 18 155 0.0 3.2 0.00 0.00 0.00 84 1016.0
20260504081529 14 110 0.0 0.0 0.00 0.00 0.00 87 1016.3
20260504050001 16 110 0.0 0.0 0.00 0.00 0.00 77 1018.3
20260504044504 16 110 0.0 0.0 0.00 0.00 0.00 76 1018.4
20260504043001 16 110 0.0 0.0 0.00 0.00 0.00 73 1018.5
20260504041600 17 110 0.0 0.0 0.00 0.00 0.00 71 1018.4
20260504040105 17 110 0.0 0.0 0.00 0.00 0.00 70 1018.5
20260504034617 17 110 0.0 0.0 0.00 0.00 0.00 69 1018.4
20260504033104 18 110 0.0 0.0 0.00 0.00 0.00 66 1018.4